This is the latest recevied weather packets stored in our database for station/object K7FRY. If no packets are shown the sender has not sent any weather packets the latest 10 day(s).
| Time | Temp. | Humidity | Pressure | Rain* | Wind** | Luminosity | Snow |
|---|---|---|---|---|---|---|---|
| 1778018050 | 23.89° C | 42% | 1011.2 hPa | 0 mm | - | 664 W/m² | - |
| 1778017747 | 23.33° C | 42% | 1011.5 hPa | 0 mm | - | 676 W/m² | - |
| 1778017445 | 23.33° C | 41% | 1011.6 hPa | 0 mm | - | 681 W/m² | - |
| 1778017142 | 23.33° C | 43% | 1011.5 hPa | 0 mm | - | 693 W/m² | - |
| 1778016839 | 23.89° C | 44% | 1011.3 hPa | 0 mm | - | 698 W/m² | - |
| 1778016535 | 23.33° C | 43% | 1011.5 hPa | 0 mm | - | 715 W/m² | - |
| 1778016232 | 23.33° C | 43% | 1011.5 hPa | 0 mm | - | 725 W/m² | - |
| 1778015928 | 23.89° C | 41% | 1011.6 hPa | 0 mm | - | 764 W/m² | - |
| 1778015626 | 23.89° C | 42% | 1011.8 hPa | 0 mm | - | 783 W/m² | - |
| 1778015322 | 24.44° C | 38% | 1011.9 hPa | 0 mm | - | 739 W/m² | - |
| 1778015020 | 23.89° C | 41% | 1011.8 hPa | 0 mm | - | 761 W/m² | - |
| 1778014716 | 23.33° C | 43% | 1011.9 hPa | 0 mm | - | 806 W/m² | - |
| 1778014415 | 23.89° C | 41% | 1011.9 hPa | 0 mm | - | 762 W/m² | - |
| 1778014111 | 23.89° C | 41% | 1012 hPa | 0 mm | - | 769 W/m² | - |
| 1778013809 | 23.33° C | 42% | 1012.1 hPa | 0 mm | - | 778 W/m² | - |
| 1778013506 | 23.33° C | 46% | 1012.1 hPa | 0 mm | - | 782 W/m² | - |
| 1778013202 | 23.33° C | 48% | 1012.1 hPa | 0 mm | - | 778 W/m² | - |
| 1778012899 | 23.33° C | 47% | 1012.4 hPa | 0 mm | - | 789 W/m² | - |
| 1778012595 | 23.33° C | 47% | 1012.1 hPa | 0 mm | - | 814 W/m² | - |
| 1778012292 | 22.78° C | 48% | 1012.3 hPa | 0 mm | - | 843 W/m² | - |
| 1778011989 | 23.33° C | 48% | 1012.3 hPa | 0 mm | - | 823 W/m² | - |
| 1778011688 | 23.33° C | 48% | 1012 hPa | 0 mm | - | 834 W/m² | - |
| 1778011384 | 23.33° C | 47% | 1012.2 hPa | 0 mm | - | 850 W/m² | - |
| 1778011079 | 24.44° C | 48% | 1012.2 hPa | 0 mm | - | 902 W/m² | - |
| 1778010777 | 23.89° C | 48% | 1012.4 hPa | 0 mm | - | 960 W/m² | - |
* Rain latest hour (hover to see other rain measurements)
** Current wind speed in m/s (hover to see current wind gust speed)